SES-2

Last updated on Fri Dec 19 2025 00:02:50 GMT+0000 (Coordinated Universal Time)

1 37809U 11049A 25352.54860426 -.00000171 00000+0 00000+0 0 9992 2 37809 0.0282 45.7673 0002484 218.9595 293.1927 1.00272911 52159
UTC large
Height (km)
Speed (km/s)
/
Latitude / Longitude
Inclination (degrees)
Orbital Period (minutes)
Azimuth
Elevation
Range (km)
Doppler Factor

Next 0 passes for location: London (51.5072 / 0.1276)

Sorry there are no passes over London.